軌道要素
Epoch 2012 Dec. 19.0 TT = JDT 2456280.5
T 2012 Dec. 7.24026 TT MPC
q 3.1587104 (2000.0) P Q
z -0.0004528 Peri. 147.27406 +0.84721832 -0.26315992
+/-0.0000002 Node 235.21726 +0.27903592 +0.95964392
e 1.0014302 Incl. 34.18597 +0.45206202 -0.09914837
From 4326 observations 2012 May 13-2014 Mar. 21, mean residual 0".4.
|